Location: Camps Bay
(33.9517°S, 18.3844°E)
Time: 09:50:57
(UTC+00:00)

SAR-Lupe-1 - Pass Details

Date: 18 January 2020
Orbit: 480 x 486 km, 98.1° (Epoch: 01 July)

Event Time Altitude Azimuth Distance (km) Brightness Sun altitude
Rises 02:38:35 0° 172° (S) 2,591 8.5 -14.0°
Reaches altitude 10° 02:40:42 10° 176° (S) 1,700 7.4 -13.7°
Maximum altitude 02:44:18 59° 255° (WSW) 573 4.2 -13.1°
Enters shadow 02:46:49 18° 331° (NNW) 1,255 5.6 -12.7°
